Вернуться в каталог

USA 25

АктивенВоенныеLEO
NORAD 18025·PAYLOAD·🇺🇸 United States

Запущен May 15, 1987 с Vandenberg Space Force Base

Loading…

Ближайшие Пролёты (ближайшие 24 часа)

TLE

СвежийSource: Space-Track

Эпоха: Sep 14, 2026, 13:35 UTC

1 18025U 87043H   26257.56634601  .00009210  00000-0  49705-3 0  9991
2 18025  63.2892 100.4806 0769772 105.2715 263.4699 13.92292367364316

Отслеживайте USA 25 в реальном времени с AllMySat

Download on the App Store